Flight Track Log - Related Links

Times and Time Zones

All times are in EDT time to prevent confusion due to time zone crossing. See the N534QS flight status page for this flight to view local times or setup timezone preferences in your user account.

Time Position Orientation Groundspeed Altitude Reporting Facility
EDT Latitude Longitude Course Direction KTS MPH feet Rate Location/Type
Thu 09:09:40 PM 41.1000 -73.8000 295° West 230 265 5,700  Level New York TRACON
Thu 09:10:34 PM 41.1000 -73.8833 270° West 253 291 8,000 1,211 Climbing New York TRACON
Thu 09:11:34 PM 41.1000 -73.9833 270° West 253 291 8,000 714 Level New York TRACON
Thu 09:12:40 PM 41.0833 -74.0833 258° West 254 292 9,500 952 Climbing New York TRACON
Thu 09:13:40 PM 41.0833 -74.1833 270° West 287 330 10,000 263 Climbing New York TRACON
Thu 09:14:34 PM 41.0833 -74.2833 270° West 337 388 10,000  Level New York TRACON
Thu 09:15:34 PM 41.0667 -74.4167 261° West 338 389 10,000  Level New York TRACON
Thu 09:16:34 PM 41.0500 -74.5333 259° West 345 397 10,000 -350 Level New York TRACON
Thu 09:17:34 PM 40.9667 -74.5833 204° Southwest 320 368 9,300 -1,143 Descending New York TRACON
Thu 09:18:40 PM 40.8833 -74.6167 197° South 271 312 7,600 -1,143 Descending New York TRACON
Thu 09:19:40 PM 40.8167 -74.6500 201° Southwest 274 315 6,900 -850 Descending New York TRACON
Thu 09:20:40 PM 40.7333 -74.6833 197° South 271 312 5,900 -1,000 Descending New York TRACON
Thu 09:21:40 PM 40.6667 -74.7000 191° South 274 315 4,900 -950 Descending New York TRACON
Thu 09:22:40 PM 40.6000 -74.7333 201° Southwest 276 318 4,000 -279 Descending New York TRACON
Thu 09:25:15 PM 40.4167 -74.7833 192° South 248 285 3,900 -195 Descending Philadelphia TRACON
Thu 09:26:15 PM 40.3667 -74.7333 143° Southeast 224 258 3,300 -1,000 Descending Philadelphia TRACON
Thu 09:27:15 PM 40.3167 -74.7500 194° South 142 163 1,900 -1,190 Descending Philadelphia TRACON
Thu 09:28:21 PM 40.3000 -74.7833 237° Southwest 105 121 800 -1,000 Descending Philadelphia TRACON
Thu 09:30:00 PM 40.2767 -74.8135 75° East  Level Estimated
Thu 09:37:00 PM 40.2767 -74.8135 75° East  Level Estimated

Login

Don't have an account? Register now (free) for customized features, flight alerts, and more!